CAPE
0 0 1 1 2 1 0 2 0 1 0 0 1 0 1 2 1 0 0 0 0 0 0 0 0 0 0 0 0 0 0 0 0 0 54 443 403 419 1306 1236 937 949 1542 763 198
0 0 0 1 0 1 1 1 0 0 0 0 0 1 1 2 0 0 0 0 0 0 0 0 0 0 0 0 0 0 0 0 0 0 55 127 345 487 561 852 776 1264 874 683 251
0 0 0 0 2 0 0 1 1 0 0 0 1 0 0 0 0 0 0 0 0 0 0 0 0 0 0 0 0 0 0 0 0 0 0 99 292 93 505 550 778 1211 899 528 319
0 0 0 0 0 1 0 0 1 1 0 0 1 1 0 0 0 0 0 0 0 0 0 0 0 0 0 0 0 0 0 0 0 0 0 0 132 497 69 916 894 1340 978 614 456
0 0 0 0 0 0 1 0 1 0 0 0 0 1 0 0 0 0 0 0 0 0 0 0 0 0 0 0 0 0 0 0 0 0 0 0 0 631 517 545 0 887 767 547 455
0 0 0 0 0 0 1 0 0 0 0 0 0 0 0 0 0 0 0 0 0 0 0 0 0 0 0 0 0 0 0 0 0 0 0 0 0 2 519 608 472 1017 587 550 242
0 0 0 0 0 2 1 0 0 0 1 0 0 0 0 0 0 0 0 0 0 0 0 0 0 0 0 0 0 0 0 0 0 0 0 0 0 0 975 1683 1777 1154 878 791 405
0 0 0 0 0 1 0 0 0 1 0 0 0 0 0 0 0 0 0 0 0 0 0 0 0 0 0 0 0 0 0 0 0 0 0 0 0 0 991 1687 1783 1451 1338 1170 690
1 0 0 0 0 0 0 0 0 0 0 0 0 0 0 0 0 0 0 0 0 0 0 0 0 0 0 0 0 0 0 0 0 0 0 0 0 0 109 1469 1505 1526 1403 1183 1041
1 0 0 0 0 0 0 0 0 0 0 0 0 0 0 0 0 0 0 0 0 0 0 0 0 0 0 0 0 0 0 0 0 0 0 0 0 16 16 1004 1470 1350 1182 1194 1101
0 0 0 0 0 0 0 0 0 0 0 0 0 0 0 0 0 0 0 0 0 0 0 0 0 0 0 0 0 0 0 0 0 0 23 23 15 49 690 916 1258 1337 1145 1031 1237
0 0 0 0 0 0 0 0 0 0 0 0 0 0 0 0 0 0 0 0 0 0 0 0 0 0 0 0 0 0 0 0 0 0 0 19 82 103 804 1002 1264 1407 1174 822 856
0 0 0 0 0 0 0 0 0 0 0 0 0 0 0 0 0 0 0 0 0 0 0 0 0 0 0 0 0 0 0 0 0 0 0 0 0 0 445 737 986 663 411 350 1124
0 0 0 0 0 0 0 0 0 0 0 2 1 0 0 0 0 0 0 0 0 0 0 0 0 0 0 0 0 0 0 0 0 0 0 0 0 0 0 221 993 680 575 821 1094
0 0 0 3 0 0 0 0 0 0 85 1 0 0 0 5 0 0 0 0 0 0 0 0 0 0 0 0 0 0 0 0 0 0 0 0 0 0 2 40 231 1111 867 1189 1505
0 0 0 0 0 0 0 0 0 0 90 0 1 0 5 25 17 0 22 19 19 19 15 2 0 9 15 19 1 0 0 1 3 0 0 0 0 0 0 3 3 122 752 745 1277
0 0 0 0 0 0 0 0 150 192 5 11 0 0 0 17 0 23 1 12 125 3 13 0 5 48 9 16 60 84 105 42 40 38 0 4 1 0 0 1 0 7 98 836 814
0 0 0 0 0 0 0 37 205 0 0 0 0 0 0 21 0 0 0 1 40 2 0 0 0 0 0 0 0 2 40 72 71 84 19 70 58 1 72 19 99 96 112 820 871
0 0 0 0 0 0 148 188 0 0 0 0 0 0 0 0 0 0 0 0 12 0 0 0 0 0 0 0 0 0 0 4 25 5 14 32 43 63 249 49 119 62 179 145 589
0 0 15 0 0 2 208 0 0 0 0 0 0 0 0 0 0 0 0 0 0 0 0 0 0 0 0 0 0 0 0 1 77 69 124 103 133 54 1 0 0 5 330 830 796
0 93 0 0 2 62 11 0 0 0 0 0 0 0 0 0 0 0 0 0 0 0 0 0 0 0 0 0 0 0 0 0 37 48 76 73 113 21 7 2 2 0 11 406 375
81 129 0 0 64 0 0 0 0 0 0 0 0 0 0 0 0 0 0 0 0 0 0 0 0 0 0 0 0 0 58 48 310 72 37 17 24 3 0 0 0 0 0 5 26
161 0 0 0 12 0 0 0 0 0 0 0 0 0 0 0 0 0 0 0 0 0 0 0 0 6 3 2 19 9 2 13 130 231 44 23 16 0 0 0 0 0 0 0 4
101 16 0 0 0 0 0 0 0 0 0 0 0 0 0 0 0 0 0 0 0 0 0 3 145 181 188 85 75 97 105 106 130 170 51 48 47 8 0 0 0 0 26 20 23
53 4 0 0 0 0 0 0 0 0 0 0 0 0 0 0 0 0 0 0 0 0 12 122 163 174 124 88 88 99 30 15 176 56 95 142 14 1 5 0 3 12 10 6 2
0 0 0 0 0 0 0 0 0 0 0 0 0 0 0 0 0 0 0 0 0 11 36 101 167 215 195 178 152 4 0 0 40 73 3 5 0 5 9 6 0 3 12 37 5
0 0 0 0 0 0 0 0 0 0 0 0 0 0 0 0 0 0 0 0 7 13 39 82 107 158 213 144 171 153 1 0 0 0 2 8 16 14 12 8 5 8 1 1 8
CIN
-0 -0 -0 -0 -0 -0 -0 -0 -0 -0 -0 -0 -0 -0 -0 -0 -0 -0 -0 -0 -0 -0 -0 -0 -0 -0 -0 -0 -0 -0 -0 -0 -0 -0 -2 -8 -8 -5 -12 -53 -8 -10 -34 -128 -153
-0 -0 -0 -0 -0 -0 -0 -0 -0 -0 -0 -0 -0 -0 -0 -0 -0 -0 -0 -0 -0 -0 -0 -0 -0 -0 -0 -0 -0 -0 -0 -0 -0 -0 -8 -8 -1 -10 -36 -22 -20 -27 -86 -102 -164
-0 -0 -0 -0 -0 -0 -0 -0 -0 -0 -0 -0 -0 -0 -0 -0 -0 -0 -0 -0 -0 -0 -0 -0 -0 -0 -0 -0 -0 -0 -0 -0 -0 -0 -0 -57 -22 -171 -10 -5 -3 -56 -92 -129 -149
-0 -0 -0 -0 -0 -0 -0 -0 -0 -0 -0 -0 -0 -0 -0 -0 -0 -0 -0 -0 -0 -0 -0 -0 -0 -0 -0 -0 -0 -0 -0 -0 -0 -0 -0 -0 -60 -369 -311 -46 -149 -21 -92 -156 -155
-0 -0 -0 -0 -0 -0 -0 -0 -0 -0 -0 -0 -0 -0 -0 -0 -0 -0 -0 -0 -0 -0 -0 -0 -0 -0 -0 -0 -0 -0 -0 -0 -0 -0 -0 -0 -0 -129 -106 -193 -0 -58 -51 -133 -127
-0 -0 -0 -0 -0 -0 -0 -0 -0 -0 -0 -0 -0 -0 -0 -0 -0 -0 -0 -0 -0 -0 -0 -0 -0 -0 -0 -0 -0 -0 -0 -0 -0 -0 -0 -0 -0 -4 -312 -303 -188 -76 -99 -102 -123
-0 -0 -0 -0 -0 -0 -0 -0 -0 -0 -0 -0 -0 -0 -0 -0 -0 -0 -0 -0 -0 -0 -0 -0 -0 -0 -0 -0 -0 -0 -0 -0 -0 -0 -0 -0 -0 -0 -87 -44 -2 -52 -60 -66 -84
-0 -0 -0 -0 -0 -0 -0 -0 -0 -0 -0 -0 -0 -0 -0 -0 -0 -0 -0 -0 -0 -0 -0 -0 -0 -0 -0 -0 -0 -0 -0 -0 -0 -0 -0 -0 -0 -0 -15 -17 -31 -45 -0 -17 -42
-0 -0 -0 -0 -0 -0 -0 -0 -0 -0 -0 -0 -0 -0 -0 -0 -0 -0 -0 -0 -0 -0 -0 -0 -0 -0 -0 -0 -0 -0 -0 -0 -0 -0 -0 -0 -0 -0 -10 -25 -62 -59 -8 -5 -26
-0 -0 -0 -0 -0 -0 -0 -0 -0 -0 -0 -0 -0 -0 -0 -0 -0 -0 -0 -0 -0 -0 -0 -0 -0 -0 -0 -0 -0 -0 -0 -0 -0 -0 -0 -0 -0 -83 -4 -16 -48 -89 -60 -32 -31
-0 -0 -0 -0 -0 -0 -0 -0 -0 -0 -0 -0 -0 -0 -0 -0 -0 -0 -0 -0 -0 -0 -0 -0 -0 -0 -0 -0 -0 -0 -0 -0 -0 -0 -8 -45 -18 -22 -6 -17 -11 -4 -118 -142 -69
-0 -0 -0 -0 -0 -0 -0 -0 -0 -0 -0 -0 -0 -0 -0 -0 -0 -0 -0 -0 -0 -0 -0 -0 -0 -0 -0 -0 -0 -0 -0 -0 -0 -0 -0 -0 -4 -4 -25 -5 -10 -2 -17 -119 -135
-0 -0 -0 -0 -0 -0 -0 -0 -0 -0 -0 -0 -0 -0 -0 -0 -0 -0 -0 -0 -0 -0 -0 -0 -0 -0 -0 -0 -0 -0 -0 -0 -0 -0 -0 -0 -0 -0 -10 -15 -6 -233 -190 -37 -41
-0 -0 -0 -0 -0 -0 -0 -0 -0 -0 -0 -0 -0 -0 -0 -0 -0 -0 -0 -0 -0 -0 -0 -0 -0 -0 -0 -0 -0 -0 -0 -0 -0 -0 -0 -0 -0 -0 -0 -6 -5 -130 -178 -148 -0
-0 -0 -0 -0 -0 -0 -0 -0 -0 -0 -2 -7 -0 -0 -0 -1 -0 -6 -0 -0 -0 -0 -0 -0 -0 -0 -0 -0 -0 -0 -0 -0 -0 -0 -0 -0 -0 -0 -0 -1 -1 -12 -16 -3 -9
-0 -0 -0 -0 -0 -0 -0 -0 -0 -0 -9 -0 -0 -0 -0 -0 -0 -0 -1 -6 -7 -7 -0 -0 -0 -0 -1 -1 -0 -0 -0 -0 -0 -0 -0 -0 -0 -0 -0 -0 -1 -3 -16 -26 -21
-0 -0 -0 -0 -0 -0 -0 -0 -14 -2 -0 -3 -0 -0 -0 -0 -0 -1 -0 -0 -0 -8 -9 -0 -14 -11 -42 -13 -28 -9 -1 -0 -0 -0 -0 -0 -0 -0 -0 -0 -0 -11 -2 -19 -17
-0 -0 -0 -0 -0 -0 -0 -54 -1 -0 -0 -0 -0 -0 -0 -2 -0 -0 -0 -0 -21 -12 -0 -0 -0 -0 -0 -0 -1 -10 -3 -0 -8 -11 -51 -13 -0 -5 -7 -23 -48 -23 -12 -8 -12
-0 -0 -0 -0 -0 -0 -83 -1 -0 -0 -0 -0 -0 -0 -0 -0 -0 -0 -0 -0 -11 -2 -0 -0 -0 -0 -0 -0 -0 -0 -0 -21 -13 -14 -35 -35 -75 -47 -126 -233 -36 -90 -97 -21 -59
-0 -0 -31 -0 -0 -16 -24 -0 -0 -0 -0 -0 -0 -0 -0 -0 -0 -0 -0 -0 -0 -0 -0 -0 -0 -0 -0 -0 -0 -0 -0 -0 -24 -0 -0 -0 -7 -122 -0 -0 -0 -141 -24 -101 -137
-0 -75 -0 -0 -11 -53 -0 -0 -0 -0 -0 -0 -0 -0 -0 -0 -0 -0 -0 -0 -0 -0 -0 -0 -0 -0 -0 -0 -0 -0 -0 -0 -2 -12 -0 -0 -28 -0 -0 -0 -0 -0 -3 -40 -49
-127 -23 -0 -0 -43 -0 -0 -0 -0 -0 -0 -0 -0 -0 -0 -0 -0 -0 -0 -0 -0 -0 -0 -0 -0 -0 -0 -0 -0 -0 -0 -3 -2 -0 -7 -0 -0 -0 -0 -0 -0 -0 -0 -56 -43
-77 -0 -0 -0 -25 -0 -0 -0 -0 -0 -0 -0 -0 -0 -0 -0 -0 -0 -0 -0 -0 -0 -0 -0 -0 -3 -1 -0 -9 -21 -28 -6 -0 -0 -0 -0 -0 -0 -0 -0 -0 -0 -1 -0 -9
-49 -1 -0 -0 -0 -0 -0 -0 -0 -0 -0 -0 -0 -0 -0 -0 -0 -0 -0 -0 -0 -0 -0 -7 -10 -0 -0 -0 -0 -0 -33 -10 -3 -1 -15 -2 -6 -8 -0 -0 -0 -0 -5 -5 -19
-34 -2 -0 -0 -0 -0 -0 -0 -0 -0 -0 -0 -0 -0 -0 -0 -0 -0 -0 -0 -0 -11 -18 -0 -2 -3 -9 -7 -0 -3 -48 -87 -0 -26 -0 -8 -5 -0 -0 -0 -0 -43 -15 -12 -7
-0 -0 -0 -0 -0 -0 -0 -0 -0 -0 -0 -0 -0 -0 -0 -0 -0 -0 -0 -0 -0 -16 -2 -9 -8 -3 -18 -0 -15 -2 -0 -27 -23 -24 -0 -42 -3 -3 -0 -0 -0 -0 -7 -0 -6
-0 -0 -0 -0 -0 -0 -0 -0 -0 -0 -0 -0 -0 -0 -0 -0 -0 -0 -0 -0 -25 -17 -5 -4 -10 -6 -5 -2 -0 -59 -36 -0 -0 -6 -0 -0 -0 -1 -0 -1 -0 -43 -14 -28 -2
Wind_Speed
12 12 12 12 12 13 12 13 13 13 13 14 13 14 15 16 19 10 14 10 6 3 4 14 14 15 17 18 19 20 15 16 22 24 6 4 8 9 19 25 11 4 18 26 25
12 12 12 13 13 13 12 13 13 13 13 14 14 14 15 15 13 22 18 11 9 4 10 14 13 14 14 17 17 17 15 22 23 24 8 6 6 10 8 14 15 20 26 27 24
13 12 13 13 13 13 12 13 13 13 13 14 14 14 14 15 12 5 7 8 5 5 14 17 16 14 16 14 18 20 19 19 24 26 17 7 7 12 13 11 17 21 24 25 23
13 13 13 13 14 13 13 13 14 14 13 14 14 15 13 8 6 7 11 9 6 7 13 15 16 17 16 16 17 21 22 19 26 29 27 16 6 15 32 12 25 18 20 23 22
13 13 14 13 14 13 13 13 13 13 13 14 14 13 11 9 13 10 8 7 8 8 14 16 16 16 17 16 15 19 20 19 21 24 26 12 15 20 27 17 26 10 19 21 19
13 13 13 13 14 13 13 13 12 13 13 13 12 13 8 13 4 8 9 8 9 11 15 18 15 15 16 17 16 15 15 21 19 24 19 18 17 19 2 15 20 24 21 19 20
12 13 13 13 13 13 13 12 12 13 13 12 10 8 12 19 6 1 7 9 10 11 17 16 15 15 12 16 15 17 17 19 18 21 19 16 22 18 24 28 22 20 19 19 18
13 12 13 13 13 13 14 13 13 14 13 12 9 9 10 4 6 8 9 8 5 9 10 14 11 12 16 18 19 11 16 16 18 20 18 16 21 17 18 20 21 19 20 20 18
13 12 12 13 13 13 13 13 16 16 12 10 8 9 10 2 8 10 10 10 8 7 7 6 7 12 16 16 15 16 13 19 20 20 20 19 20 16 15 20 19 18 17 18 18
13 12 11 11 12 12 13 11 8 8 9 10 10 10 9 11 4 4 6 11 4 8 9 9 7 10 9 10 13 18 16 12 15 20 21 18 20 18 21 19 20 19 16 16 18
13 11 10 10 10 11 12 5 6 7 10 14 5 11 11 4 3 9 7 8 9 8 11 15 12 13 16 19 17 18 20 19 20 14 20 20 20 19 17 18 20 22 20 19 17
12 11 10 10 10 9 7 8 10 10 10 20 5 11 2 4 6 7 6 8 11 11 15 12 14 16 16 18 18 20 17 16 13 19 17 13 20 18 21 21 20 22 24 23 19
10 10 9 10 9 6 11 10 8 10 7 14 3 6 5 9 6 9 8 10 13 15 14 15 17 17 10 14 12 14 15 16 18 18 19 18 20 16 17 23 21 5 6 9 17
9 8 8 8 4 11 12 5 10 7 7 9 1 6 9 8 5 2 3 8 15 17 15 12 18 15 16 13 14 16 18 19 19 17 14 18 15 17 18 19 23 22 27 32 37
8 8 7 5 12 9 8 8 9 4 1 6 8 2 7 4 9 6 3 8 14 16 17 17 18 19 10 15 14 17 18 18 17 19 20 20 15 18 17 22 25 29 27 29 27
7 7 7 7 7 15 9 7 5 6 1 7 7 10 8 7 9 8 20 8 10 18 15 18 19 18 20 18 15 18 17 17 15 17 17 19 20 17 18 19 19 21 27 26 26
8 7 6 9 8 12 8 7 5 4 7 11 14 12 12 6 12 13 11 15 10 10 14 21 17 8 19 25 24 21 15 12 15 15 15 20 20 16 21 21 20 21 15 25 24
9 8 10 10 11 8 6 9 8 12 13 15 12 15 14 4 4 11 16 12 11 13 12 13 16 19 11 13 12 21 18 10 9 15 19 24 15 13 14 6 18 17 1 12 21
9 6 7 6 11 3 7 5 8 9 12 12 15 11 11 16 14 13 13 10 14 16 13 13 17 29 26 23 19 19 14 21 19 18 17 15 22 20 32 37 21 18 19 9 14
6 9 5 7 7 8 9 5 5 8 11 11 10 9 12 13 11 11 11 16 12 15 15 15 22 18 21 23 18 18 18 17 6 8 11 12 11 11 27 29 32 35 16 23 21
5 7 7 7 9 10 4 8 6 9 8 8 9 9 10 11 12 12 6 13 11 11 15 16 13 16 20 17 22 18 16 17 2 3 3 9 5 12 17 21 23 29 31 14 11
7 7 7 7 9 3 8 6 3 6 8 5 5 8 7 11 9 11 9 11 13 13 15 13 9 13 22 21 20 17 14 11 7 11 8 10 8 9 13 20 18 23 27 26 15
7 3 6 8 5 6 3 7 5 7 6 6 4 5 6 8 6 11 9 8 9 14 10 10 7 12 15 16 21 19 17 18 14 9 16 13 8 7 11 11 14 19 26 20 7
8 5 4 3 5 8 2 1 2 4 0 4 4 4 6 9 10 6 12 8 13 8 4 2 8 14 13 20 19 20 22 23 14 10 17 17 15 18 14 13 9 9 15 17 4
4 5 4 6 7 4 5 2 4 1 3 1 4 2 7 6 12 10 14 13 13 7 6 2 11 15 17 21 18 15 12 15 19 4 8 14 15 16 15 15 14 12 13 13 15
6 6 0 4 4 8 4 1 5 2 2 1 3 7 9 9 6 11 13 11 6 11 9 9 9 14 18 21 7 10 8 8 12 14 15 14 13 13 10 12 15 13 10 9 14
9 3 6 4 6 6 4 3 4 4 5 4 6 8 9 10 10 11 10 9 8 7 6 5 6 9 13 17 20 5 10 12 10 10 12 9 7 13 11 13 16 17 11 16 9
Wind_Direction
314 316 315 313 311 310 312 309 310 310 313 311 315 311 310 313 305 244 253 244 206 124 302 269 215 221 234 249 251 251 252 257 263 269 246 134 239 160 115 145 170 160 147 148 142
310 314 313 313 312 308 312 310 309 309 313 312 308 311 314 319 291 270 255 162 124 144 250 245 227 217 228 235 247 236 248 249 261 269 351 329 260 150 158 145 136 88 116 136 148
311 311 312 312 309 313 313 311 308 309 309 307 309 313 313 312 278 181 129 129 135 193 247 263 266 231 230 230 239 239 243 257 263 269 303 167 233 15 203 174 150 126 133 143 153
309 308 308 313 313 313 311 309 305 305 305 307 311 314 310 275 303 104 157 155 151 235 243 242 253 259 239 240 231 252 241 241 265 281 294 261 135 86 292 80 61 130 147 150 163
308 311 308 307 306 311 307 303 304 303 306 305 311 315 301 240 256 137 172 157 196 203 231 236 241 240 252 245 250 241 260 250 254 269 275 293 284 178 210 104 127 199 167 158 165
309 304 299 302 302 306 300 300 299 298 298 300 305 312 246 268 296 131 183 156 209 206 232 241 238 241 258 259 254 252 255 274 257 263 268 270 268 264 122 70 162 167 160 168 169
299 295 298 296 302 303 299 298 295 294 293 292 297 286 264 251 320 200 223 225 213 199 241 243 257 264 273 268 273 257 267 260 264 259 260 262 261 253 154 179 139 158 166 170 167
294 293 290 299 302 302 301 295 291 287 283 284 284 269 263 330 295 227 237 250 225 222 282 311 296 279 279 278 285 244 240 255 263 242 243 246 258 235 160 146 156 170 179 171 166
290 289 292 297 299 298 295 286 283 279 269 268 255 218 273 128 224 217 223 242 190 241 242 268 292 277 266 251 257 244 241 238 243 259 222 230 252 266 217 167 161 175 186 172 153
289 289 289 293 302 300 292 276 294 291 224 237 256 263 260 251 70 329 226 250 206 228 233 227 225 237 231 267 258 259 228 253 235 230 216 222 223 238 253 178 173 175 185 187 173
290 289 293 296 302 302 313 221 208 195 231 249 236 237 296 248 160 232 188 214 239 236 253 210 226 239 236 215 240 263 279 295 305 299 180 210 230 222 170 187 195 178 186 190 189
294 296 298 303 302 310 283 262 28 334 302 223 250 237 336 284 264 192 172 235 225 251 246 244 226 243 252 257 251 253 269 276 294 299 302 261 224 226 177 195 208 195 180 187 183
293 297 303 300 308 272 241 306 314 321 271 241 154 68 99 197 274 143 175 224 267 261 263 271 279 293 273 282 282 275 277 283 277 278 279 275 273 273 197 196 210 113 344 330 195
297 296 293 305 292 261 234 353 337 22 269 150 209 89 177 235 211 358 296 261 273 283 284 306 301 274 288 263 265 266 271 255 258 259 264 267 264 232 241 224 198 195 197 184 205
302 298 291 252 321 285 4 328 351 252 156 287 76 179 209 307 336 132 249 266 272 284 293 299 304 300 243 270 280 271 264 272 277 278 278 247 267 277 261 229 218 211 201 193 176
306 297 303 206 225 255 312 337 272 241 317 353 41 345 336 28 351 345 329 225 340 345 293 276 282 300 301 308 280 298 297 285 270 271 254 261 254 253 259 263 254 228 197 197 181
303 287 262 312 288 330 327 288 229 275 308 33 355 336 320 34 330 334 349 319 12 342 327 321 289 331 353 336 344 335 319 279 265 239 244 238 243 254 260 261 261 271 242 197 189
314 310 235 250 279 322 307 267 279 13 28 348 335 296 291 40 346 351 317 324 48 2 340 340 320 357 358 346 311 330 325 300 291 311 308 312 295 297 297 16 16 345 107 178 192
319 233 247 265 221 243 281 281 27 9 351 344 314 1 343 352 2 336 330 329 47 30 8 321 318 324 321 333 321 302 277 287 299 299 292 286 294 288 9 2 9 4 348 355 129
304 284 251 305 301 280 273 76 81 20 341 344 343 356 332 353 348 324 324 47 18 18 360 326 307 314 314 323 301 285 306 301 12 299 296 271 261 27 4 0 354 350 357 45 95
258 241 52 318 302 260 341 59 79 65 360 353 352 340 351 356 331 330 342 84 36 358 347 324 324 321 313 314 322 320 311 311 260 229 298 308 60 13 10 10 354 336 334 93 110
272 280 30 338 275 10 38 14 325 23 8 4 358 330 8 332 331 308 349 1 25 346 334 13 308 304 315 300 282 282 326 351 337 289 266 261 272 53 27 2 360 342 334 325 124
268 342 60 324 297 103 123 99 47 11 28 355 11 357 346 310 310 344 334 337 1 341 32 352 333 309 326 321 338 344 327 308 322 266 259 281 285 102 43 24 353 334 323 335 274
282 295 124 71 41 337 106 125 153 105 114 333 326 316 331 329 301 307 296 1 352 60 170 122 274 309 312 315 316 324 359 353 331 314 309 293 343 355 3 339 342 341 335 331 15
270 57 6 346 48 10 327 340 291 82 177 179 221 349 333 316 312 308 351 339 321 147 310 359 314 317 322 307 326 22 6 3 332 15 309 335 334 7 12 352 348 344 12 42 71
336 345 73 107 336 291 147 77 325 21 279 26 290 331 305 283 356 321 322 321 311 351 322 17 317 331 310 304 256 88 40 348 345 11 354 344 19 10 9 19 14 0 59 113 102
360 325 277 156 190 249 61 28 348 320 176 278 327 307 304 12 334 306 293 277 270 279 335 309 317 314 304 332 312 54 349 1 348 360 337 3 13 356 19 15 16 11 104 126 117